星链-34476 (STARLINK-34476)

导读 | 豆包AI

STARLINK-34476是美国SpaceX公司星链(Starlink)星座的卫星,于2025年6月13日发射升空。星链项目旨在构建覆盖全球的卫星互联网通信系统,该卫星继承了星链星座成熟的技术设计,配备激光通信终端,可实现星间高速互联,为全球用户提供低成本、高性能的宽带互联网接入服务,进一步扩充了星链低轨星座的服务容量与覆盖范围,支撑全球卫星互联网的组网运营。

Basic Information
目录编号:
64364
目录名称:
STARLINK-34476
国际标识:
2025-126W
轨道中心:
EARTH
卫星名称:
星链-34476
卫星全名:
星链-34476 (STARLINK-34476)
卫星状态:
在轨 (已飞行320 天)
发射日期:
2025-06-13 UTC
国别 :
美国 (US)
星等 :
--
Orbit Information
数据来源 国际轨道数据 AOE轨道数据
星历时间 2026-04-29T03:56:38+0800
19小时前
查看轨道信息
2026-04-26T14:00:00+0800
3天前
查看轨道信息
半长轴 6950.143km 6950.194km
偏心率 0.0003006 0.0002775
轨道倾角 70.000° 69.995°
近地点辐角 269.942° 269.866°
升交点赤经 267.984° 274.490°
平近点角 90.140° 212.254°
近地点 569.916km 570.128km
远地点 574.096km 573.986km
周期 96.106分钟 96.107分钟
每日圈数 14.983463 14.983299
Detailed Information
固有亮度:
5
最大亮度:
2.5
卫星平台:
Starlink V1.0
覆盖范围:
全球
运营商:
太空探索技术公司
运营商所在国:
美国
制造商(研发单位):
太空探索技术公司
制造商所在国:
美国
使用方式:
暂无
Satellite Introduction
Starlink 计划是 SpaceX 推出的全球卫星互联网项目,通过发射低轨道卫星,为全球尤其是偏远地区提供高速、低延迟的互联网服务。自 2019 年起,Starlink 已部署数千颗卫星,旨在缩小全球数字鸿沟,推动互联网普及。该项目还为军事、航空等行业提供通信支持,带来广泛经济效益。
2D Orbit Map
3D Orbit Map
Orbit Altitude Analysis Chart
Orbit Inclination Analysis Chart
Orbit Comprehensive Analysis Chart
View Comprehensive Chart